Torna al catalogo

FENGYUN 2H DEB

AttivoGEO
NORAD 43645·DEBRIS·🇨🇳 China

Lanciato Jun 5, 2018 da Xichang Satellite Launch Center

Loading…

TLE

AggiornatoSource: Space-Track

Epoca: Sep 10, 2026, 00:16 UTC

1 43645U 18050D   26253.01114041 -.00000181  00000-0  00000-0 0  9997
2 43645   5.1098  75.0455 0057055 272.7429  86.9045  1.00320171 29770

Traccia FENGYUN 2H DEB in tempo reale con AllMySat

Download on the App Store